Home   Weather   Horten   Past weeks

Flag for Norway Past Weather in Horten, Norway — Yesterday and Last 2 Weeks

Now
39 °F

Scattered showers. Scattered clouds.


Feels Like: 28 °F
Forecast: 33 / 39 °F
Wind: 28 mph from Northwest

Location: Oseberg

Current Time: Apr 23, 2017 at 7:53:18 am

Latest Report: Apr 23, 2017 at 6:50 am


Visibility: N/A

Pressure: 30.07 "Hg

Humidity: 61%

Dew Point: 27 °F

Location of HortenLocation

Past Weather in Horten — Graph

°F

Horten Temperature Yesterday

Maximum temperature yesterday: 45 °F (at 10:50 am)
Minimum temperature yesterday: 36 °F (at 11:50 pm)
Average temperature yesterday: 40 °F

High & Low Weather Summary for the Past Weeks

 TemperatureHumidityPressure
High48 °F (Apr 15, 7:50 pm)100% (Apr 9, 10:20 am)30.54 "Hg (Apr 9, 10:20 am)
Low36 °F (Apr 10, 6:50 pm)53% (Apr 13, 9:50 am)29.42 "Hg (Apr 12, 12:20 pm)
Average43 °F78%29.92 "Hg
* Reported Apr 8 6:50 am — Apr 23 6:20 am, Horten, Weather by CustomWeather, © 2017

Note: Actual official high and low records may vary slightly from our data, if they occured in-between our weather recording intervals... More about our weather records

Advertising

Horten Weather History for the Previous 24 Hours

Scroll right to see more
 ConditionsComfort  
Time TempWeatherWind HumidityBarometerVisibility
6:20 am
Sun, Apr 23
39 °FScattered clouds.28 mph61%30.07 "HgN/A
5:50 am39 °FPartly sunny.29 mph61%30.07 "HgN/A
4:50 am39 °FPassing clouds.30 mph70%30.07 "HgN/A
3:50 am37 °FSprinkles. Passing clouds.23 mph81%30.07 "Hg4 mi
2:50 am36 °FPassing clouds.22 mph87%30.09 "HgN/A
1:29 am36 °FSnow flurries. Passing clouds.32 mph87%30.09 "Hg2 mi
12:50 am37 °FPassing clouds.33 mphN/A30.09 "HgN/A
11:50 pm
Sat, Apr 22
36 °FSprinkles. Passing clouds.29 mph87%30.09 "Hg4 mi
10:50 pm37 °FPassing clouds.30 mph81%30.09 "HgN/A
9:50 pm37 °FSprinkles. Passing clouds.31 mph75%30.09 "Hg6 mi
6:50 pm39 °FScattered showers. Partly sunny.33 mph65%30.09 "HgN/A
5:50 pm39 °FScattered showers. Broken clouds.37 mph75%30.09 "HgN/A
5:20 pm39 °FScattered showers. Partly sunny.36 mph75%30.09 "HgN/A
4:50 pm39 °FScattered showers. Partly sunny.35 mph75%30.09 "HgN/A
4:20 pm39 °FScattered showers. Partly sunny.37 mph81%30.09 "Hg6 mi
3:50 pm39 °FSprinkles. Partly sunny.38 mph87%30.09 "Hg6 mi
3:20 pm41 °FScattered showers. Partly sunny.36 mph81%30.09 "HgN/A
2:50 pm39 °FSprinkles. Broken clouds.33 mph87%30.09 "Hg6 mi
2:20 pm39 °FScattered showers. Broken clouds.29 mph87%30.07 "HgN/A
1:50 pm43 °FScattered showers. Partly sunny.24 mph76%30.09 "HgN/A
1:20 pm41 °FScattered showers. Broken clouds.25 mph81%30.09 "HgN/A
12:50 pm43 °FRain showers. Broken clouds.26 mph76%30.09 "HgN/A
12:20 pm41 °FScattered showers. Scattered clouds.22 mph81%30.09 "HgN/A
11:50 am39 °FScattered showers. Broken clouds.23 mph87%30.09 "HgN/A
10:50 am45 °FScattered showers. Scattered clouds.13 mph76%30.09 "HgN/A
10:20 am43 °FSprinkles. Broken clouds.28 mph71%30.09 "HgN/A
9:50 am43 °FScattered showers. Partly sunny.25 mph76%30.07 "HgN/A
8:50 am41 °FScattered showers. Partly sunny.25 mph87%30.07 "HgN/A
8:20 am41 °FScattered showers. Broken clouds.23 mph81%30.07 "HgN/A
7:50 am41 °FScattered showers. Broken clouds.25 mph81%30.07 "HgN/A
7:20 am39 °FMixture of precip. Partly sunny.21 mph87%30.07 "Hg6 mi
Weather by CustomWeather, © 2017

See weather overviewHow to use our weather pages